Monroe, NC

7:36 PM EDT on July 24, 2017 (GMT -0400)
Monroe

Weather History for KEQY - June, 2013

Change the Weather History Date:

Monday, June 3, 2013

  Actual Average (KCLT) Record (KCLT)
Temperature  
Mean Temperature 76 °F -  
Max Temperature 84 °F 83 °F 100 °F (1895)
Min Temperature 68 °F 62 °F 51 °F (1966)
Cooling Degree Days 10    
Growing Degree Days 26 (Base 50)    
Moisture  
Dew Point 68 °F    
Average Humidity 83    
Maximum Humidity 94    
Minimum Humidity 54    
Precipitation  
Precipitation 0.11 in - - ()
Sea Level Pressure  
Sea Level Pressure 29.92 in    
Wind  
Wind Speed 5 mph (West)    
Max Wind Speed 8 mph    
Max Gust Speed -    
Visibility 9 miles    
Events Rain    
Averages and records for this station are not official NWS values.
T = Trace of Precipitation, MM = Missing Value Source: NWS Daily Summary

Daily Weather History Graph

Daily Weather History Graph

Search for Another Location

Airport or City:

Trip Planner

Search our weather history database for the weather conditions in past years. The results will help you decide how hot, cold, wet, or windy it might be!

Date:

Astronomy

Jun. 03, 2013 Rise Set
Actual Time 6:09 AM EDT 8:32 PM EDT
Civil Twilight 5:39 AM EDT 9:01 PM EDT
Nautical Twilight 5:03 AM EDT 9:38 PM EDT
Astronomical Twilight 4:24 AM EDT 10:17 PM EDT
Moon 2:56 AM EDT (6/3) 4:10 PM EDT (6/3)
Length of Visible Light 15h 22m
Length of Day
14h 23m
Waning Crescent, 22% of the Moon is Illuminated
Jun 3
Waning Crescent
Jun 8
New
Jun 16
First Quarter
Jun 23
Full
Jun 30
Last Quarter

Hourly Weather History & Observations

Time (EDT) Temp. Heat Index Dew Point Humidity Pressure Visibility Wind Dir Wind Speed Gust Speed Precip Events Conditions
12:53 AM 69.1 °F - 66.9 °F 93% 29.94 in 10.0 mi North - - 0.00 in   Mostly Cloudy
1:53 AM 69.1 °F - 66.9 °F 93% 29.94 in 10.0 mi North - - 0.00 in Rain Light Rain
2:53 AM 69.1 °F - 66.9 °F 93% 29.92 in 8.0 mi North - - 0.02 in Rain Light Rain
3:18 AM 69.8 °F - 68.0 °F 94% 29.91 in 10.0 mi North - - 0.00 in Rain Light Rain
3:31 AM 69.8 °F - 68.0 °F 94% 29.91 in 5.0 mi North - - 0.05 in Rain Light Rain
3:53 AM 71.1 °F - 69.1 °F 93% 29.90 in 10.0 mi North - - 0.05 in Rain Light Rain
4:11 AM 71.6 °F - 69.8 °F 94% 29.90 in 10.0 mi North - - 0.00 in Rain Light Rain
4:53 AM 71.1 °F - 69.1 °F 93% 29.89 in 10.0 mi North - - 0.00 in   Overcast
5:51 AM 71.6 °F - 69.8 °F 94% 29.91 in 10.0 mi North - - N/A   Overcast
5:53 AM 71.1 °F - 69.1 °F 93% 29.91 in 10.0 mi North - - N/A   Overcast
6:53 AM 71.1 °F - 69.1 °F 93% 29.91 in 6.0 mi North - - N/A   Overcast
7:12 AM 71.6 °F - 69.8 °F 94% 29.92 in 3.0 mi North - - 0.01 in Rain Light Rain
7:20 AM 71.6 °F - 69.8 °F 94% 29.92 in 2.5 mi North - - 0.02 in Rain Rain
7:24 AM 71.6 °F - 69.8 °F 94% 29.92 in 3.0 mi North - - 0.02 in Rain Light Rain
7:53 AM 71.1 °F - 69.1 °F 93% 29.93 in 8.0 mi North - - 0.02 in Rain Light Rain
8:06 AM 71.6 °F - 69.8 °F 94% 29.92 in 2.0 mi North - - 0.02 in Rain Rain
8:12 AM 71.6 °F - 69.8 °F 94% 29.92 in 3.0 mi North - - 0.02 in Rain Light Rain
8:34 AM 71.6 °F - 69.8 °F 94% 29.92 in 10.0 mi SW 5.8 mph - 0.02 in   Overcast
8:53 AM 72.0 °F - 70.0 °F 93% 29.93 in 10.0 mi SW 5.8 mph - 0.02 in   Overcast
9:53 AM 73.9 °F - 71.1 °F 91% 29.93 in 10.0 mi SW 5.8 mph - N/A   Mostly Cloudy
10:37 AM 75.2 °F - 69.8 °F 83% 29.94 in 10.0 mi West 5.8 mph - N/A   Mostly Cloudy
10:48 AM 75.2 °F - 69.8 °F 83% 29.94 in 10.0 mi West 6.9 mph - N/A   Overcast
10:53 AM 75.9 °F - 70.0 °F 82% 29.94 in 10.0 mi West 4.6 mph - N/A   Overcast
11:18 AM 75.2 °F - 69.8 °F 83% 29.93 in 10.0 mi WNW 5.8 mph - N/A   Mostly Cloudy
11:37 AM 75.2 °F - 69.8 °F 83% 29.93 in 10.0 mi West 6.9 mph - N/A   Mostly Cloudy
11:53 AM 77.0 °F - 69.1 °F 76% 29.93 in 10.0 mi Variable 5.8 mph - N/A   Overcast
12:53 PM 78.1 °F - 69.1 °F 74% 29.91 in 10.0 mi West 6.9 mph - N/A   Mostly Cloudy
1:48 PM 78.8 °F - 69.8 °F 74% 29.91 in 10.0 mi West 8.1 mph - N/A   Scattered Clouds
1:53 PM 79.0 °F - 69.1 °F 72% 29.91 in 10.0 mi West 6.9 mph - N/A   Partly Cloudy
2:45 PM 82.4 °F 84.6 °F 66.2 °F 58% 29.90 in 10.0 mi NNW 4.6 mph - N/A   Mostly Cloudy
2:53 PM 81.0 °F 83.3 °F 66.9 °F 62% 29.90 in 10.0 mi Calm Calm - N/A   Mostly Cloudy
3:04 PM 82.4 °F 84.6 °F 66.2 °F 58% 29.89 in 10.0 mi North 3.5 mph - N/A   Scattered Clouds
3:53 PM 82.9 °F 85.4 °F 66.9 °F 58% 29.88 in 10.0 mi Calm Calm - N/A   Partly Cloudy
4:53 PM 82.9 °F 84.6 °F 64.9 °F 54% 29.86 in 10.0 mi Calm Calm - N/A   Scattered Clouds
5:53 PM 82.0 °F 83.8 °F 64.9 °F 56% 29.86 in 10.0 mi SSW 3.5 mph - N/A   Clear
6:53 PM 80.1 °F 82.3 °F 66.9 °F 64% 29.87 in 10.0 mi SW 3.5 mph - N/A   Clear
7:53 PM 75.9 °F - 69.1 °F 79% 29.88 in 10.0 mi SSW 3.5 mph - 0.00 in   Overcast
8:53 PM 72.0 °F - 69.1 °F 91% 29.91 in 10.0 mi Calm Calm - N/A   Clear
9:53 PM 72.0 °F - 66.0 °F 81% 29.95 in 10.0 mi ENE 5.8 mph - N/A   Scattered Clouds
10:53 PM 70.0 °F - 64.9 °F 84% 29.97 in 10.0 mi NE 5.8 mph - N/A   Partly Cloudy
11:53 PM 68.0 °F - 64.9 °F 90% 29.98 in 10.0 mi NE 4.6 mph - N/A   Clear